User: anonymous   Login
Location: Unspecified
(0.0000°N, 0.0000°E)
Time: 20:52:20
(UTC+00:00)
Language:

DMSP B5D2-7 - Orbit

View from above orbital plane
View from above orbital plane
View from above satellite
View from above satellite

Ground track
Ground track

The orbit data is extracted from the following two-line orbital elements,

1 23233U 94057A   18132.86635593 0.00000000  00000-0  00000-0 0    01
2 23233  99.0696 150.5697 0010000  51.4522 308.5477 14.15647200    01
Epoch (UTC): 12 May 2018 20:47:33
Eccentricity: 0.0010000
inclination: 99.0696°
perigee height: 833 km
apogee height: 847 km
right ascension of ascending node: 150.5697°
argument of perigee: 51.4522°
revolutions per day: 14.15647200
mean anomaly at epoch: 308.5477°
orbit number at epoch: 0

The dashed part of the orbit path shows where the satellite is in the earth's shadow,  

DLR